Weather History for LICR - October, 2012

Change the Weather History Date:

Sunday, October 14, 2012

  Actual Average Record
Temperature  
Mean Temperature 71 °F -  
Max Temperature 78 °F 70 °F 80 °F (2004)
Min Temperature 64 °F 59 °F 60 °F (1998)
Cooling Degree Days 6    
Growing Degree Days 21 (Base 50)    
Moisture  
Dew Point 58 °F    
Average Humidity 61    
Maximum Humidity 78    
Minimum Humidity 42    
Precipitation  
Precipitation 0.00 in - - ()
Sea Level Pressure  
Sea Level Pressure 29.84 in    
Wind  
Wind Speed 9 mph ()    
Max Wind Speed 17 mph    
Max Gust Speed -    
Visibility 6.2 miles    
Events Thunderstorm    
Averages and records for this station are not official NWS values.
T = Trace of Precipitation, MM = Missing Value Source: Averaged Metar Reports

Daily Weather History Graph

Daily Weather History Graph

Search for Another Location

Airport or City:

Trip Planner

Search our weather history database for the weather conditions in past years. The results will help you decide how hot, cold, wet, or windy it might be!

Date:

Astronomy

Oct. 14, 2012 Rise Set
Actual Time 7:05 AM CEST 6:20 PM CEST
Civil Twilight 6:38 AM CEST 6:47 PM CEST
Nautical Twilight 6:08 AM CEST 7:17 PM CEST
Astronomical Twilight 5:37 AM CEST 7:48 PM CEST
Moon 5:44 AM CEST (10/14) 5:29 PM CEST (10/14)
Length of Visible Light 12h 08m
Length of Day
11h 15m
Waning Crescent, 2% of the Moon is Illuminated
Oct 14
Waning Crescent
Oct 15
New
Oct 22
First Quarter
Oct 29
Full
Nov 7
Last Quarter

Hourly Weather History & Observations

Time (CEST) Temp. Dew Point Humidity Pressure Visibility Wind Dir Wind Speed Gust Speed Precip Events Conditions
5:50 AM 64.4 °F 57.2 °F 77% 29.86 in - NE 6.9 mph - N/A   Clear
6:50 AM 66.2 °F 57.2 °F 73% 29.86 in - NE 8.1 mph - N/A   Clear
7:50 AM 66.2 °F 55.4 °F 68% 29.86 in - NE 8.1 mph - N/A   Clear
8:50 AM 71.6 °F 59.0 °F 64% 29.86 in - NNE 4.6 mph - N/A   Clear
9:50 AM 73.4 °F 59.0 °F 61% 29.86 in - North 6.9 mph - N/A   Clear
10:50 AM 77.0 °F 59.0 °F 54% 29.86 in - North 11.5 mph - N/A   Clear
11:50 AM 78.8 °F 57.2 °F 47% 29.86 in 6.2 mi NNW 12.7 mph - N/A   Partly Cloudy
12:50 PM 78.8 °F 59.0 °F 51% 29.83 in 6.2 mi NNW 13.8 mph - N/A   Partly Cloudy
1:50 PM 78.8 °F 57.2 °F 47% 29.80 in 6.2 mi NNW 15.0 mph - N/A   Partly Cloudy
2:50 PM 78.8 °F 53.6 °F 42% 29.80 in 6.2 mi North 17.3 mph - N/A   Partly Cloudy
3:50 PM 78.8 °F 55.4 °F 44% 29.80 in - North 12.7 mph - N/A   Clear
4:50 PM 77.0 °F 55.4 °F 47% 29.80 in - North 12.7 mph - N/A   Clear
5:50 PM 75.2 °F 55.4 °F 50% 29.80 in 6.2 mi North 12.7 mph - N/A   Scattered Clouds
6:50 PM 75.2 °F 55.4 °F 50% 29.80 in 6.2 mi North 5.8 mph - N/A   Scattered Clouds
7:50 PM 73.4 °F 59.0 °F 61% 29.83 in 6.2 mi NNW 6.9 mph - N/A Thunderstorm Scattered Clouds
8:50 PM 71.6 °F 60.8 °F 69% 29.86 in 6.2 mi North 12.7 mph - N/A Thunderstorm Scattered Clouds
9:50 PM 69.8 °F 59.0 °F 68% 29.86 in 6.2 mi North 15.0 mph - N/A   Scattered Clouds
9:52 PM 69.8 °F 59.0 °F 68% 29.86 in 6.2 mi North 13.8 mph - N/A Thunderstorm Thunderstorm
10:18 PM 69.8 °F 59.0 °F 68% 29.86 in 6.2 mi North 11.5 mph - N/A   Scattered Clouds
10:20 PM 69.8 °F 60.8 °F 73% 29.86 in - North 11.5 mph - N/A   Clear
10:50 PM 69.8 °F 60.8 °F 73% 29.86 in 6.2 mi North 9.2 mph - N/A   Partly Cloudy
11:50 PM 68.0 °F 60.8 °F 78% 29.86 in 6.2 mi East 2.3 mph - N/A   Partly Cloudy